Wind_Speed
47 47 50 50 47 44 44 47 48 48 48 48 48 49 49 50 50 47 44 44 45 46 45 44 45 45 45 46 44 42 37 34 33 33 33 33 33 31 30 31 32 33 33 31 29 27 27 27 28 30 30 30 30 30 29 28 28 29 28 26 25 26 26 26 27 28 29 30 32 33 33 34 34 34 34 34 34 33 33 34 34 35 37 39 42 45
48 48 50 50 49 46 45 47 49 50 51 51 50 50 51 51 51 49 48 47 47 47 45 44 46 46 45 44 44 41 37 34 33 31 29 27 26 26 26 28 29 31 31 31 30 28 27 26 27 28 29 30 30 30 29 28 27 28 29 27 27 27 27 27 27 28 29 29 30 31 32 33 33 33 34 34 35 35 34 34 35 35 37 38 40 43
48 49 49 50 50 48 47 48 49 50 51 52 52 52 53 53 53 52 51 50 50 49 46 44 47 48 44 42 40 37 35 36 36 34 28 24 24 25 27 28 29 30 29 29 29 29 28 27 27 27 28 28 29 30 30 30 29 29 30 30 30 31 31 30 30 30 30 31 31 32 33 33 33 34 34 35 36 36 37 36 37 37 37 38 39 41
47 48 48 50 49 47 48 50 50 50 50 52 53 54 54 53 53 54 52 52 52 51 49 48 49 48 44 42 40 34 34 37 37 37 34 28 28 30 30 32 33 33 33 32 31 30 28 27 28 28 28 29 30 31 31 32 33 34 34 35 36 35 35 34 34 34 33 33 34 35 35 36 36 36 36 36 36 36 37 38 39 39 39 39 40 40
45 45 46 47 47 47 47 48 48 49 50 50 51 53 52 51 51 52 52 52 52 52 51 51 51 50 45 43 41 34 35 39 38 39 39 36 36 37 36 36 36 37 36 36 35 33 32 31 32 32 32 32 32 32 33 33 34 36 38 39 39 40 40 40 40 40 39 38 38 38 37 37 37 37 37 36 36 36 37 37 38 39 39 40 40 41
42 40 40 42 45 47 46 45 45 46 48 48 48 49 48 48 49 49 49 50 51 51 51 52 53 53 48 43 40 36 38 44 43 43 43 41 41 43 42 40 38 37 38 37 37 35 34 35 36 37 37 38 38 37 37 37 38 39 40 41 42 43 43 43 44 44 44 44 44 43 43 42 41 39 38 39 39 39 38 38 39 39 40 40 41 41
39 38 38 39 41 44 45 44 44 44 45 46 46 45 45 46 47 47 47 48 50 50 51 53 54 56 52 44 40 39 42 47 49 49 47 44 44 45 44 43 40 38 36 35 35 33 33 34 37 39 42 44 46 45 44 44 44 45 45 46 46 46 46 46 46 47 47 47 47 47 48 48 47 46 44 44 45 44 43 42 42 43 43 44 44 44
38 36 36 38 39 40 41 42 42 43 44 44 44 43 43 44 45 45 46 46 48 49 51 53 53 56 57 50 44 43 45 48 51 52 51 49 48 46 44 43 43 41 37 31 30 31 32 35 38 41 44 47 50 51 51 50 50 50 51 51 51 51 51 51 51 51 50 50 50 49 49 50 50 51 51 50 50 50 50 48 47 47 47 48 48 49
38 36 36 37 38 37 38 39 40 41 42 42 42 42 42 42 43 43 45 46 47 50 52 52 52 55 58 55 51 50 50 52 53 53 53 51 48 47 45 43 40 40 40 34 29 30 33 36 39 42 45 48 52 54 55 54 53 54 54 55 55 55 55 55 56 55 55 54 54 53 52 52 52 52 53 53 53 54 54 54 53 52 52 52 52 52
40 40 38 38 37 37 37 38 38 39 40 40 40 42 42 43 44 45 47 48 50 53 52 52 53 56 58 57 57 57 56 58 57 55 55 52 50 49 47 44 38 35 39 38 30 30 36 39 42 44 46 50 54 57 58 58 56 56 56 57 57 57 57 58 58 59 59 59 58 57 56 55 54 54 54 55 55 56 57 58 57 56 55 56 56 56
43 43 41 40 38 38 38 37 38 38 39 40 41 44 45 46 47 49 50 51 54 55 53 53 55 58 59 59 60 61 61 62 62 58 56 55 53 51 46 44 44 41 42 41 36 33 36 42 46 47 50 54 57 58 59 59 58 58 58 57 58 58 59 59 59 60 61 61 61 61 60 59 58 58 57 57 58 59 59 60 60 60 59 58 58 59
45 44 44 43 41 40 39 39 40 40 41 43 45 47 48 49 50 52 54 55 57 57 55 56 58 59 61 62 62 63 64 64 64 61 58 56 54 53 48 46 48 49 48 45 41 36 36 42 49 51 54 58 60 60 59 59 58 57 58 58 59 60 60 60 60 60 61 62 62 62 62 62 62 61 61 61 61 61 62 62 63 63 61 60 61 61
46 46 46 45 44 42 42 43 43 43 45 46 47 48 49 51 52 54 56 57 58 58 58 59 61 63 65 65 64 65 65 65 64 62 59 57 56 57 54 50 49 50 49 46 43 41 40 43 50 55 59 63 64 62 61 61 60 60 60 60 61 61 61 61 61 61 61 62 63 64 64 64 65 65 65 65 65 65 65 66 66 66 64 63 63 63
47 47 47 46 45 44 45 45 45 47 48 48 48 48 50 51 53 55 56 57 58 59 60 61 63 65 67 66 65 65 65 64 64 62 60 57 56 58 58 54 49 49 49 49 47 46 46 48 52 57 60 63 63 61 61 62 63 63 63 62 62 61 61 61 61 61 60 60 61 62 63 64 66 67 68 69 70 70 70 70 70 69 68 66 66 65
50 50 49 49 49 48 47 47 48 49 49 49 49 50 51 52 53 55 57 59 60 61 62 63 64 66 67 65 64 63 64 65 63 61 61 58 55 54 55 52 50 51 53 55 54 53 53 53 55 57 58 60 61 61 61 61 62 64 65 65 64 63 62 62 62 61 61 60 60 60 61 63 65 66 68 69 71 71 72 72 72 71 70 69 68 68
54 54 52 52 52 51 50 51 51 50 50 51 52 53 54 55 54 56 59 61 62 63 64 64 64 65 63 62 62 62 63 62 62 61 60 59 55 52 52 51 52 54 57 59 60 59 58 57 57 58 59 61 63 65 66 66 66 66 66 66 66 65 65 64 64 64 64 64 64 64 65 65 66 67 67 67 68 69 69 70 71 72 72 72 71 71
53 54 53 52 53 52 52 53 53 53 54 55 56 56 58 58 58 59 61 61 61 62 64 63 63 62 60 60 62 61 61 61 62 62 60 58 57 55 55 56 57 58 60 62 62 62 60 59 59 60 62 65 68 70 71 71 71 70 68 66 65 65 65 65 65 65 65 65 66 66 67 67 67 67 67 67 67 68 69 70 71 72 73 74 74 74
51 51 51 50 51 53 52 53 56 57 59 61 61 60 59 59 59 59 59 60 58 60 62 60 59 59 58 59 60 59 60 62 62 61 60 59 58 58 58 59 60 62 63 63 63 62 61 61 63 65 66 68 70 72 72 72 72 70 68 66 66 66 67 67 67 66 65 65 66 66 66 67 67 67 67 68 69 69 70 72 73 74 75 76 77 77
52 52 51 50 53 57 56 57 59 61 62 62 61 60 58 58 58 57 56 56 56 58 60 59 57 56 56 57 58 59 60 60 59 58 58 58 58 58 59 60 63 64 65 65 65 65 65 66 67 68 69 69 69 69 69 68 68 67 67 67 67 67 67 68 68 68 67 67 67 67 68 67 67 67 68 69 71 72 73 74 75 77 77 78 78 79
57 59 60 58 60 62 62 62 63 61 59 58 57 57 56 56 56 56 55 55 56 58 60 60 59 58 56 57 59 61 61 60 59 58 57 58 59 60 62 63 64 66 67 68 68 69 69 69 70 70 70 69 68 68 68 68 68 69 70 69 69 68 67 68 68 69 69 69 70 70 69 69 68 68 69 70 72 74 75 76 78 79 81 81 81 81
63 65 66 65 66 68 67 65 61 57 55 56 56 55 55 55 54 54 55 55 56 58 60 61 61 58 56 57 59 60 60 60 60 60 60 61 62 64 65 65 66 67 68 69 69 70 70 71 71 70 70 70 70 71 71 72 73 73 73 72 71 71 70 70 70 70 71 72 73 73 73 72 71 70 70 71 72 74 77 79 80 82 83 84 84 84
66 67 67 67 67 66 64 60 56 55 55 54 54 54 54 53 54 56 57 56 56 58 59 60 63 61 56 56 58 59 59 60 61 62 63 64 65 66 67 67 67 68 70 71 71 71 72 72 72 73 74 75 75 74 72 73 73 72 73 74 74 74 74 73 72 70 70 71 72 73 74 74 74 74 74 74 74 75 77 79 82 84 85 87 87 85
66 66 66 65 64 62 60 58 56 55 54 53 53 54 52 50 51 54 57 57 57 59 59 61 64 63 58 57 58 58 58 59 61 63 64 65 65 65 66 67 68 70 71 72 73 74 74 75 76 78 78 77 77 75 74 74 75 76 77 77 76 75 74 73 73 72 72 72 72 73 73 73 74 74 75 76 76 77 79 80 82 84 86 89 90 89
66 64 64 63 62 61 61 59 56 55 54 54 54 54 54 53 53 54 57 58 59 60 60 63 65 62 59 58 57 56 57 58 60 62 63 64 64 64 66 67 69 71 72 74 76 77 79 80 80 80 80 79 79 79 78 78 78 78 78 77 76 75 75 75 74 74 74 74 75 75 75 75 75 75 75 76 77 78 80 82 84 86 88 91 94 94
65 63 63 62 62 62 61 58 56 56 55 54 52 52 53 53 53 54 55 55 56 58 57 60 63 61 59 59 58 57 59 60 61 62 64 65 66 67 69 70 73 75 76 78 80 82 83 84 84 83 83 83 83 84 83 82 81 80 78 76 75 75 77 78 79 79 79 79 78 78 78 77 77 77 77 79 80 81 82 82 83 85 89 93 95 95
62 62 61 61 61 62 61 58 56 57 57 55 53 53 53 54 54 56 57 58 60 62 60 60 64 64 62 62 62 62 63 64 65 67 68 69 70 72 74 76 77 79 80 81 83 84 85 85 85 85 85 85 85 85 86 87 87 87 87 86 86 86 87 88 90 91 91 91 89 88 86 85 84 84 84 84 85 87 87 86 85 84 86 90 94 97
61 61 60 60 61 61 60 58 56 58 60 60 59 58 58 58 59 61 64 66 68 68 67 67 68 68 66 65 66 67 68 69 70 71 72 72 74 75 77 78 78 79 80 81 82 83 84 84 85 85 86 87 87 87 88 89 90 91 92 94 95 95 96 97 98 98 99 98 98 97 96 96 96 96 95 94 93 93 94 94 93 91 90 89 91 94
60 61 59 59 61 61 60 60 58 59 62 63 63 62 61 61 62 64 67 69 68 69 71 70 69 70 70 68 68 68 69 71 72 73 74 74 75 76 76 77 78 79 80 82 83 83 84 85 86 87 88 89 90 91 91 92 93 94 95 96 97 98 99 99 100 100 100 100 100 100 100 99 100 100 100 100 99 99 99 101 101 100 98 96 95 94
60 61 59 59 62 61 60 61 61 62 64 64 65 65 64 64 64 66 69 69 68 70 73 71 70 72 72 70 70 70 71 72 74 75 76 76 77 77 77 78 79 81 82 83 85 86 87 88 89 90 92 93 94 95 95 96 97 97 98 99 99 100 100 101 101 101 101 100 100 100 100 100 100 100 101 101 102 102 102 102 104 104 103 102 100 99
61 61 60 61 63 62 61 62 63 64 65 66 66 67 67 66 67 68 70 70 70 72 73 72 73 74 73 72 73 73 74 75 76 76 77 79 79 79 80 81 82 83 85 87 89 90 91 92 93 94 95 95 96 96 97 98 98 99 100 100 101 101 102 102 101 101 101 101 101 101 101 101 101 101 102 102 103 103 103 104 104 105 105 104 103 102
62 62 62 63 65 65 62 62 64 66 67 68 68 67 67 68 69 69 69 69 71 73 73 73 75 76 75 75 76 76 77 78 79 79 80 81 82 83 84 85 87 88 90 92 93 94 94 95 95 95 96 95 96 96 97 97 98 98 99 99 100 101 101 101 101 101 101 101 101 101 101 101 102 102 102 103 103 104 104 105 106 106 107 106 106 105
62 63 63 64 67 67 63 63 66 67 68 70 69 67 67 68 69 69 69 69 71 72 73 75 77 78 78 78 79 79 80 80 81 82 83 85 86 87 88 90 91 93 94 95 95 95 95 95 95 94 93 93 92 92 92 92 92 92 92 93 93 94 95 95 96 96 97 97 98 98 99 100 100 101 102 103 104 105 105 106 107 107 108 109 109 109
62 64 65 65 68 68 65 65 68 68 70 72 68 65 65 66 68 69 70 70 71 72 75 77 79 80 80 81 81 82 83 84 84 85 87 88 90 91 91 91 92 93 94 94 94 93 92 91 90 88 87 86 84 84 83 84 84 84 84 85 85 86 86 87 88 89 90 91 92 94 95 96 97 98 99 101 102 104 105 106 107 108 109 110 111 112
63 65 65 66 68 69 66 66 69 71 73 71 65 63 64 67 69 71 72 72 72 74 77 79 80 81 82 83 83 84 85 86 87 87 89 90 90 90 90 90 90 90 89 88 87 85 83 82 81 79 78 76 75 75 75 76 76 77 78 79 79 80 81 82 82 83 84 85 87 88 90 91 93 94 96 97 99 101 103 105 106 108 109 111 112 112
64 65 66 66 68 69 67 66 70 73 72 69 67 66 67 69 71 73 74 73 73 75 77 79 81 82 83 84 85 86 86 87 88 88 89 89 88 87 86 84 83 81 79 78 76 75 74 73 72 71 70 69 68 68 69 70 71 72 73 74 76 77 78 79 79 80 81 82 83 84 85 87 88 90 92 94 96 97 99 101 103 105 107 109 111 112
63 64 66 66 67 68 68 68 72 74 72 70 71 70 70 71 72 73 75 75 74 76 78 80 83 84 85 86 87 87 87 87 87 86 84 83 82 80 77 74 72 71 69 68 67 66 65 65 64 63 63 63 63 64 65 66 66 67 69 70 71 72 73 75 76 77 78 78 79 80 81 83 84 86 87 89 91 93 95 97 99 101 103 105 107 109
63 63 65 66 67 68 69 71 73 75 74 72 71 71 73 73 72 75 78 78 77 76 79 83 85 85 85 85 85 86 85 84 83 80 77 75 73 71 68 66 64 63 62 61 60 59 58 59 59 59 59 60 61 62 62 62 63 64 65 66 67 68 69 70 72 73 74 74 76 77 78 80 82 83 85 86 88 90 92 94 96 97 98 100 102 103
63 64 64 67 68 68 70 73 75 76 77 74 72 72 74 75 75 78 81 82 80 79 81 83 83 82 82 81 82 82 81 79 77 73 69 68 66 64 62 60 59 58 57 56 56 55 55 56 57 57 58 59 60 61 61 61 62 62 63 64 65 66 67 68 70 71 72 73 75 76 78 80 81 83 84 85 86 88 89 90 91 92 93 94 95 96
64 65 66 68 70 70 71 74 76 78 78 75 74 75 76 77 79 80 82 84 82 80 79 80 79 79 78 78 77 77 75 72 69 65 63 63 61 59 57 55 54 53 53 53 54 54 54 55 56 57 58 59 59 60 61 61 62 62 63 64 65 66 67 68 69 70 72 73 75 76 78 80 81 83 84 85 85 86 86 87 87 88 89 90 91 91
65 67 69 70 71 72 73 77 79 79 77 76 77 78 78 79 80 80 81 82 79 76 75 75 75 75 74 72 71 70 68 66 63 60 58 58 56 54 53 52 52 52 52 52 52 52 52 53 55 56 57 58 59 60 60 61 62 62 63 64 65 66 67 68 69 71 72 73 75 76 78 80 81 83 83 84 85 85 85 86 86 86 86 87 88 88
66 69 71 72 73 73 75 78 80 80 78 78 79 80 79 79 79 78 77 75 71 70 71 71 70 69 68 66 66 64 62 61 59 56 54 53 52 51 51 52 52 52 51 50 48 48 50 52 54 55 57 58 59 60 61 61 62 63 64 65 66 67 67 68 69 70 72 73 74 76 78 80 81 83 83 84 85 84 83 84 84 84 84 84 84 84
68 70 71 72 73 75 76 79 82 82 80 80 80 80 79 77 75 73 70 68 67 67 67 67 65 64 63 63 61 59 57 56 54 53 51 51 52 51 51 50 50 50 50 48 47 48 51 53 55 56 58 59 60 60 61 61 62 63 63 64 65 66 67 68 69 70 71 72 74 76 78 80 81 82 82 82 83 82 81 81 81 81 80 79 79 79
70 71 71 71 72 75 77 80 83 83 81 80 79 77 75 73 71 68 66 65 65 64 63 63 61 59 59 59 58 56 54 51 50 50 51 51 51 50 49 49 49 49 50 50 51 52 53 55 56 57 58 59 60 60 60 61 61 62 62 63 64 65 66 67 68 69 70 72 74 76 78 79 79 79 80 80 80 80 78 77 75 74 73 72 71 71
71 71 71 71 73 75 78 81 82 81 79 78 76 72 69 68 66 64 63 62 61 61 60 60 58 56 56 56 56 54 51 49 48 49 49 49 49 49 49 49 49 51 52 53 54 54 55 56 57 57 58 59 59 59 59 60 60 61 62 63 63 64 66 67 68 69 70 72 74 76 76 76 76 77 77 76 76 75 72 70 68 66 66 65 65 65
71 70 70 72 74 76 78 79 78 76 73 70 67 64 63 62 62 60 59 59 59 59 58 57 56 55 54 54 53 52 50 49 48 47 47 48 48 49 50 50 52 53 54 55 55 56 56 57 57 57 58 58 58 58 58 59 60 61 61 62 62 64 65 66 66 67 69 71 73 74 74 74 73 72 72 71 71 70 68 66 65 64 63 62 62 61
71 70 71 74 75 76 77 76 72 67 63 59 57 56 56 57 56 55 55 56 56 55 55 55 55 53 52 52 52 51 50 49 49 48 48 48 49 51 52 52 54 55 56 57 57 57 57 57 57 57 57 57 57 57 58 59 60 60 60 60 61 63 64 64 65 66 68 70 72 71 71 69 67 67 67 68 68 67 65 63 62 60 58 57 57 57
71 70 72 75 76 76 76 72 65 60 57 55 54 53 53 53 54 53 53 53 53 52 52 52 52 51 51 51 51 51 51 50 50 50 49 50 51 52 53 54 55 56 57 58 58 58 57 57 57 56 56 56 56 57 57 58 59 59 59 60 61 62 62 63 63 65 67 69 68 66 64 63 63 63 65 66 66 64 60 58 55 53 52 53 55 56
69 68 72 74 73 72 71 66 58 54 53 52 52 52 51 52 52 52 52 52 51 51 50 50 50 50 50 50 51 52 51 50 50 51 51 52 53 54 55 56 57 57 58 59 59 58 57 57 56 56 55 55 55 55 56 57 57 58 59 59 60 61 61 61 62 64 66 65 61 59 59 59 60 62 64 64 63 59 54 50 49 49 51 53 55 56
68 69 70 69 66 66 65 61 54 52 51 50 49 49 50 51 52 52 51 51 50 49 49 49 49 50 50 50 50 50 50 51 51 52 52 53 54 56 57 57 58 59 59 59 58 58 57 56 56 56 55 55 55 55 55 56 57 57 58 59 60 60 60 60 62 64 62 58 55 54 55 55 58 61 62 62 58 52 47 46 47 48 50 52 54 55
67 68 65 60 59 61 60 56 51 50 51 50 47 47 49 50 51 51 50 50 49 48 49 50 50 51 51 51 50 50 51 51 52 52 54 55 56 57 58 58 59 59 59 58 58 58 57 57 56 55 54 54 54 54 55 55 56 57 58 59 59 59 59 60 61 60 56 51 50 50 51 53 56 59 58 55 50 45 43 44 46 48 49 51 53 56
63 61 57 54 55 56 55 52 50 50 51 50 48 47 49 50 51 51 50 50 49 49 50 52 52 52 52 52 51 51 51 52 53 54 55 57 58 58 59 59 59 59 59 58 58 58 58 57 56 54 53 53 53 54 54 54 55 56 57 58 58 58 59 60 60 55 49 47 47 48 49 52 54 55 54 50 45 41 41 41 44 47 49 52 53 55
Wind_Direction
280 281 281 282 282 282 281 280 281 283 283 282 283 285 286 287 288 289 288 286 285 287 289 291 291 290 291 294 296 298 298 297 295 294 293 292 293 294 297 298 296 293 290 287 286 284 284 285 285 284 284 284 282 280 278 278 277 275 274 272 271 270 270 269 269 269 268 268 268 268 270 271 273 275 274 274 272 271 269 267 266 265 265 264 265 266
282 280 280 281 281 280 280 280 282 283 283 283 283 283 283 284 286 287 287 286 287 287 288 289 288 287 289 292 294 296 297 295 293 292 291 292 292 293 295 295 295 295 294 292 289 285 281 279 278 278 279 281 280 279 278 277 275 273 270 270 271 271 271 271 270 270 269 268 268 269 270 270 271 272 272 273 273 273 271 270 268 267 266 265 265 266
282 281 280 279 280 281 281 280 279 280 281 283 283 283 283 284 285 285 286 287 287 287 288 287 286 287 288 289 290 292 294 292 291 290 286 286 287 287 288 290 292 293 293 294 293 290 285 278 273 271 272 274 275 276 277 277 276 273 270 272 275 274 272 273 272 271 271 270 269 269 269 270 270 269 269 270 271 273 274 274 273 271 270 269 269 269
280 280 279 279 280 280 279 279 278 278 279 280 281 282 282 283 284 284 285 285 285 286 287 286 285 285 286 287 286 288 290 288 286 287 287 287 286 283 283 287 291 292 291 291 292 292 288 282 277 275 274 274 276 277 276 276 276 275 274 276 278 278 277 276 276 275 274 273 272 271 270 269 269 269 268 267 268 270 272 273 274 274 273 273 273 272
278 278 279 281 281 279 277 277 278 278 278 278 279 280 281 282 283 283 284 284 285 286 286 286 284 283 284 285 288 293 294 288 281 281 286 289 289 288 287 287 289 291 291 292 292 291 288 284 282 282 281 280 281 282 282 281 280 279 278 278 278 279 279 279 279 278 278 277 276 275 274 272 271 269 267 265 266 269 270 271 272 273 274 274 274 274
278 277 278 280 281 281 281 280 279 279 280 279 279 280 280 281 281 282 284 285 286 286 285 285 284 282 282 284 290 296 297 292 283 279 285 290 290 292 295 295 295 295 296 297 297 294 289 285 285 285 283 282 282 282 283 284 284 283 283 282 281 281 280 281 280 280 279 279 278 278 277 276 275 273 268 265 267 269 268 268 269 271 272 273 274 274
280 278 277 276 277 280 282 283 282 281 281 281 281 281 281 281 282 283 284 285 285 285 285 285 285 284 283 285 291 293 295 294 289 287 291 294 294 295 298 300 302 302 301 299 297 292 284 278 280 283 284 284 285 283 282 282 283 284 284 283 283 283 283 283 282 282 281 281 279 278 278 278 277 276 273 270 270 270 269 267 267 268 269 270 271 272
281 278 277 276 276 277 279 281 281 281 282 282 283 283 282 282 283 283 283 283 282 282 282 283 286 288 287 288 292 291 291 290 288 289 295 299 300 302 303 304 303 302 301 297 287 281 274 268 271 277 281 284 287 287 285 283 283 283 283 282 282 283 283 283 283 283 283 282 281 279 278 277 276 276 275 274 272 272 272 270 269 268 267 267 268 269
281 278 276 276 276 277 278 278 278 281 282 283 284 284 284 284 283 282 282 282 282 281 280 283 289 291 288 288 292 291 290 290 287 289 296 300 303 305 305 305 303 300 300 300 285 271 266 263 267 273 276 279 284 287 287 286 285 284 283 283 282 282 282 282 283 283 283 283 282 280 278 276 275 274 274 273 272 272 272 272 272 271 269 268 267 267
280 278 277 276 277 277 277 278 279 280 282 283 284 284 284 284 284 285 285 285 285 283 283 288 293 293 289 288 292 293 293 294 293 295 299 300 302 304 304 303 300 293 294 298 290 272 263 259 262 268 271 275 281 285 286 286 285 284 283 283 282 281 281 281 282 283 283 283 282 281 279 277 275 273 272 271 270 270 270 271 272 272 270 269 268 268
278 278 278 279 278 277 278 278 278 280 281 283 284 284 284 285 286 287 286 286 287 285 286 291 293 294 291 289 292 294 295 296 297 300 302 302 301 303 302 301 299 294 291 293 291 280 266 258 257 263 269 274 279 282 282 283 284 283 282 282 281 281 280 280 280 280 280 281 281 280 279 278 276 274 272 270 269 269 269 270 271 272 271 269 267 267
278 279 279 278 278 278 278 278 278 280 283 283 284 284 284 285 286 285 285 286 287 287 288 290 290 290 289 289 291 293 294 296 299 301 302 301 299 298 297 295 295 294 292 291 289 282 270 259 256 259 265 274 280 281 280 280 279 279 278 279 279 280 280 279 278 278 277 277 278 278 278 277 276 275 274 272 271 271 270 270 270 271 271 269 266 266
277 277 277 277 277 277 277 278 280 282 284 284 285 285 285 286 285 285 287 287 289 290 290 289 289 289 288 288 290 292 294 296 298 299 299 299 299 297 296 295 291 290 288 286 283 280 273 265 260 260 263 271 278 281 280 280 279 279 279 279 280 280 280 280 279 278 276 275 275 275 274 274 274 274 273 273 273 273 272 271 271 271 271 269 267 266
276 275 275 275 275 275 277 280 282 283 284 285 285 286 285 286 286 287 288 289 290 291 290 288 288 288 288 290 291 293 294 294 295 295 295 297 298 297 296 295 291 288 285 283 282 280 276 271 267 266 267 270 275 277 277 279 281 282 283 282 282 281 280 279 278 277 275 273 271 271 270 270 270 271 271 271 272 272 272 272 272 271 271 269 268 267
274 273 273 274 273 273 276 279 281 283 284 284 285 285 285 286 287 287 288 288 288 287 286 286 287 287 288 290 291 292 292 292 293 293 293 294 292 290 290 290 288 287 286 285 285 283 280 276 274 273 272 272 274 275 276 277 278 280 281 281 280 279 278 276 275 274 273 271 269 266 265 265 265 266 267 268 268 269 270 270 271 271 270 270 268 267
273 273 273 274 274 275 277 279 281 283 284 284 285 285 286 287 286 285 285 285 285 283 282 284 286 286 288 287 288 288 289 290 290 290 290 289 288 286 285 284 283 283 284 285 285 283 281 278 276 275 275 275 276 277 277 278 278 279 280 280 280 278 277 275 274 272 271 270 269 267 266 266 266 266 265 265 265 265 265 265 266 267 267 267 267 266
274 274 274 274 275 276 277 279 281 283 284 284 284 284 285 285 282 281 281 281 280 279 280 283 285 286 286 285 286 287 287 287 287 287 287 287 287 285 284 283 283 283 283 283 283 281 279 277 275 275 276 277 278 279 280 280 281 281 281 280 280 280 279 278 276 273 271 269 268 267 267 267 267 267 266 265 263 263 262 262 262 262 262 261 262 263
275 275 275 276 277 277 278 280 283 285 285 285 285 285 284 282 280 279 279 278 278 277 279 281 282 283 283 283 285 285 284 285 286 286 286 286 285 285 284 284 285 284 284 282 281 279 277 276 277 277 277 278 278 279 280 281 281 281 280 279 279 279 278 277 276 274 272 270 269 268 267 267 266 265 264 263 262 262 262 261 261 260 260 259 259 260
276 277 277 277 278 280 281 282 284 286 287 286 285 285 283 280 280 280 278 278 279 278 280 281 281 281 282 283 284 285 285 285 284 283 284 283 283 282 282 282 282 282 281 281 280 279 278 278 278 279 279 279 278 278 278 279 278 278 278 278 278 276 274 273 273 272 272 271 271 270 270 269 267 265 262 262 261 261 261 261 261 260 259 259 258 258
279 280 280 280 281 282 283 284 286 286 284 281 279 279 278 277 278 278 278 279 280 280 280 281 281 281 282 282 283 284 285 284 282 282 281 281 280 279 279 279 278 278 278 278 278 279 279 279 279 279 279 278 277 277 277 277 277 278 278 279 278 275 273 271 270 270 271 271 272 272 272 271 270 267 264 261 260 260 261 261 261 260 259 258 258 258
283 283 283 283 283 284 285 286 286 284 279 277 276 275 275 276 277 276 276 278 278 278 278 279 279 279 280 281 281 281 281 281 281 282 281 279 278 277 277 277 277 276 276 276 277 277 278 278 279 279 279 279 278 278 278 279 279 280 280 280 280 278 275 273 271 270 270 271 271 271 271 271 271 269 267 264 262 260 260 260 259 259 259 257 257 257
285 285 285 285 285 285 286 286 283 279 277 276 275 275 276 277 277 276 276 277 275 274 275 276 277 278 280 280 279 279 279 280 280 279 278 277 276 276 277 277 277 277 277 277 277 277 277 277 278 278 279 280 280 280 280 280 281 281 280 281 281 279 278 277 275 274 273 272 271 269 269 269 269 269 269 268 265 262 260 259 259 258 258 257 256 255
286 285 285 285 285 285 284 283 282 279 277 276 275 276 277 275 275 276 277 278 277 275 276 276 276 279 281 279 278 278 278 278 277 276 275 275 274 274 274 275 277 278 278 278 278 278 278 279 279 280 281 281 280 280 280 280 280 280 280 279 279 278 276 276 275 276 276 275 273 271 269 269 269 269 270 269 268 265 262 260 259 258 258 258 258 257
285 284 283 283 283 283 283 283 281 278 276 275 275 277 277 276 277 277 277 278 277 276 278 277 276 278 280 280 279 278 277 276 274 273 273 273 273 273 273 275 276 276 277 277 277 278 279 280 281 281 282 282 282 282 281 281 281 281 279 278 277 276 275 274 274 275 276 277 276 274 273 272 272 271 270 269 268 266 264 262 260 259 258 258 258 258
281 280 280 280 280 280 280 280 279 277 276 275 275 276 276 277 277 276 277 276 274 274 276 274 273 277 280 280 279 279 277 275 273 272 272 272 272 273 273 274 274 274 275 275 276 277 278 279 280 280 280 280 281 281 281 281 280 280 278 276 275 275 274 274 274 275 276 277 277 275 274 273 272 271 270 269 267 265 263 262 261 259 258 258 259 259
277 276 276 277 277 277 278 278 277 277 276 274 273 273 273 273 274 275 275 273 272 274 274 271 273 278 278 278 279 278 275 273 272 272 273 273 272 272 273 273 274 274 275 275 276 277 278 279 279 280 280 280 280 280 280 280 279 278 277 276 275 275 275 275 276 276 277 277 277 276 275 273 272 272 271 271 270 268 266 265 263 262 260 259 258 259
274 273 274 274 274 275 276 276 275 274 274 273 273 273 272 273 274 274 274 273 275 276 274 273 277 278 276 277 277 276 275 274 274 273 273 272 272 273 273 274 274 275 276 276 277 278 279 279 280 281 281 281 281 280 280 280 279 279 278 278 277 277 276 276 276 276 276 276 276 276 275 274 274 273 273 273 272 271 271 270 269 267 266 264 261 261
272 272 272 272 272 273 274 274 274 273 273 273 274 273 273 273 273 274 274 276 277 277 276 277 279 278 278 278 277 276 276 276 276 275 274 274 273 273 274 274 275 276 276 277 278 279 279 280 280 281 281 281 281 281 281 280 279 278 278 277 277 277 277 277 277 277 276 276 276 275 275 274 274 274 273 273 273 272 272 272 272 272 271 270 268 267
271 271 272 271 271 271 272 273 274 273 272 273 274 274 274 274 274 275 275 276 277 277 278 280 279 278 278 278 277 276 276 276 276 277 277 277 276 276 276 276 277 277 278 279 279 279 280 280 280 280 281 281 280 280 280 279 278 278 277 277 276 276 276 276 276 276 277 277 277 276 276 275 274 274 273 273 273 272 272 271 272 272 273 272 272 272
270 271 271 270 270 271 272 273 274 274 273 273 273 274 275 276 276 276 276 277 278 278 279 281 280 279 279 279 278 277 277 277 277 277 277 277 278 278 278 279 279 279 279 279 279 280 280 280 280 280 280 280 279 279 278 278 277 277 276 276 276 276 276 276 276 276 277 277 277 277 276 276 275 275 274 274 273 273 272 272 271 271 272 272 273 272
270 271 271 272 272 271 272 273 274 274 274 273 273 274 276 277 278 277 278 278 278 278 280 280 280 280 280 280 279 279 279 279 279 278 279 279 279 280 280 280 280 280 280 280 280 280 280 281 281 280 280 280 279 279 278 278 277 276 276 276 276 276 276 276 276 276 276 276 276 276 276 276 276 275 275 275 274 274 273 273 272 272 272 272 272 272
271 272 272 273 274 273 273 273 273 274 274 273 273 276 278 279 279 279 279 278 278 279 280 280 280 281 282 281 281 281 281 281 281 281 281 281 281 281 281 281 282 282 282 282 282 282 282 282 282 282 281 281 281 280 279 278 278 277 277 277 276 276 276 276 276 276 276 276 276 276 276 275 275 275 275 275 275 275 274 274 274 273 273 273 272 272
272 273 273 274 274 275 274 274 275 274 273 273 276 279 279 278 278 278 277 278 279 280 281 281 282 283 283 283 283 283 283 283 283 283 283 284 284 284 284 284 284 284 284 284 284 284 284 284 284 283 283 282 282 281 280 280 279 279 279 278 278 278 278 277 277 277 277 276 276 276 276 276 276 275 275 275 275 275 275 274 274 274 273 273 273 272
273 274 274 275 276 276 276 276 276 274 274 277 280 280 278 278 279 279 279 280 281 281 282 283 283 284 284 284 284 284 284 285 285 285 285 285 285 285 285 285 284 285 285 285 285 285 285 285 284 284 283 283 282 282 281 281 280 280 280 280 280 280 280 280 280 280 279 279 278 278 278 277 277 277 276 276 276 276 275 275 275 275 274 274 274 273
274 275 276 276 277 278 278 277 276 276 279 281 281 280 280 280 280 281 282 282 282 282 282 283 283 284 284 285 285 285 285 285 285 286 286 285 285 285 285 285 286 286 286 286 286 285 285 285 284 284 284 284 283 282 282 282 281 281 281 281 281 282 282 282 282 282 282 281 281 281 281 280 280 279 279 278 278 277 277 276 276 276 275 275 275 274
275 275 276 277 278 278 279 278 278 280 282 283 283 284 284 283 283 283 283 282 281 282 283 283 283 283 284 284 284 285 285 285 286 286 286 285 285 286 287 287 287 287 287 287 286 286 286 286 285 285 285 284 283 283 282 282 282 282 282 282 282 282 282 282 283 283 283 283 283 283 283 283 282 281 281 280 279 279 278 278 277 277 277 276 276 275
275 276 277 277 278 279 280 280 281 283 283 284 285 286 286 285 285 285 283 282 282 282 283 283 283 284 284 285 285 285 286 286 286 287 287 287 287 288 289 289 289 288 288 287 287 286 286 286 286 286 285 284 284 283 283 283 283 283 283 284 284 284 284 284 284 284 285 285 285 285 285 285 284 283 283 282 281 281 280 280 279 279 278 278 277 276
276 276 277 278 278 280 281 282 283 283 284 286 287 287 286 287 286 285 284 284 284 284 284 284 285 286 286 285 285 285 285 286 287 288 288 288 289 290 290 291 291 290 289 288 288 287 287 287 287 286 286 286 286 286 286 286 286 286 286 286 286 286 286 286 286 286 287 287 286 286 286 286 285 285 284 284 283 283 282 282 281 281 280 280 279 278
277 278 278 278 279 281 282 282 283 283 285 288 288 287 287 287 287 286 286 286 287 287 287 286 286 286 285 285 285 285 285 286 288 288 288 289 290 291 291 291 290 289 289 288 288 288 289 289 288 287 287 287 287 287 287 287 287 287 287 287 287 287 287 287 287 287 287 287 287 287 287 287 286 286 286 285 285 285 284 284 283 282 282 281 280 279
278 279 279 279 281 283 283 283 283 284 286 288 288 287 287 287 287 286 286 288 289 289 287 286 285 284 284 284 284 285 286 287 289 289 290 291 291 291 291 290 288 287 287 287 289 290 290 289 288 288 288 288 287 287 288 288 288 288 288 288 288 288 288 288 288 288 288 288 288 288 288 288 288 288 288 288 288 287 287 287 286 284 283 282 281 280
279 279 280 281 283 284 284 284 285 286 287 288 287 287 287 287 287 286 287 288 288 286 284 283 282 282 283 284 284 286 287 288 290 291 291 290 289 289 289 289 288 288 288 289 290 290 289 289 289 288 288 288 288 288 288 289 289 288 288 288 289 289 289 289 289 289 290 290 290 290 290 290 290 290 291 291 292 291 290 290 289 287 286 285 283 282
279 279 280 282 284 285 285 285 286 286 287 288 288 288 288 288 287 287 287 286 284 283 282 282 282 283 284 284 285 286 287 289 290 290 289 287 287 288 288 288 289 289 290 291 291 290 290 289 289 289 289 289 289 289 289 290 289 289 289 290 290 290 291 291 291 292 292 292 293 292 292 292 294 295 295 295 295 294 293 292 291 290 289 288 287 285
279 280 282 283 285 285 285 285 285 286 287 288 288 288 288 288 287 286 285 283 282 282 282 283 284 285 286 286 287 288 289 290 289 288 287 287 288 288 288 289 290 291 292 292 292 292 291 290 290 290 290 290 290 290 290 290 290 291 291 291 292 292 293 293 294 295 295 295 295 295 295 297 298 298 298 298 297 297 296 295 294 293 292 291 289 288
279 281 283 284 284 284 284 285 285 286 287 288 288 288 287 286 284 283 283 282 283 283 284 285 286 287 287 287 288 289 289 288 287 287 287 288 288 289 289 290 291 292 292 293 293 293 292 291 291 291 291 291 291 291 291 291 292 292 292 293 294 294 295 296 297 297 298 298 297 298 299 300 301 301 300 300 299 299 298 297 296 295 294 293 292 291
280 283 283 284 284 284 284 284 284 285 288 289 289 287 285 283 283 283 284 285 286 287 288 289 289 290 290 289 289 289 288 287 287 287 287 287 288 289 290 291 292 292 293 293 293 293 293 292 292 292 292 292 292 292 293 293 293 293 293 294 295 296 296 298 299 299 299 299 300 301 302 303 303 302 302 302 301 300 299 298 297 296 295 294 294 293
281 283 284 284 285 284 283 283 283 285 287 286 284 282 282 283 283 284 284 286 287 289 291 292 292 293 292 290 290 289 289 290 290 289 289 289 289 290 291 292 293 293 294 294 294 294 294 293 293 293 293 294 294 294 294 294 294 294 295 295 296 297 298 299 300 300 300 301 303 304 304 304 304 304 303 302 302 302 301 300 298 297 297 297 296 296
283 284 284 285 285 284 283 284 284 284 284 281 279 279 280 282 283 283 284 285 287 289 290 291 291 291 290 290 290 290 291 291 291 291 291 291 291 292 292 293 294 294 295 295 295 294 294 294 294 293 294 294 294 294 294 294 294 294 295 296 296 298 299 300 301 302 302 303 304 305 304 305 305 305 305 305 305 305 304 302 301 301 301 300 300 299
284 284 284 285 285 284 284 285 284 282 280 279 279 279 280 280 282 283 285 286 288 289 290 289 289 288 288 289 289 290 291 292 292 292 293 293 293 293 294 294 295 295 295 295 295 294 294 294 293 293 294 294 294 294 294 293 293 294 294 295 297 299 300 302 303 303 304 304 305 304 305 306 308 308 308 308 307 306 304 303 303 303 304 304 304 304
284 285 287 287 284 282 282 283 282 281 279 278 277 278 280 282 283 284 286 288 289 290 289 288 288 288 289 290 291 291 292 293 293 293 293 293 293 294 295 295 296 296 296 296 295 295 294 294 293 293 293 293 293 293 292 292 293 293 294 296 298 300 302 303 304 304 305 305 304 304 306 309 310 310 309 308 307 305 303 303 304 305 307 309 309 309
286 287 287 284 281 280 281 282 282 282 281 280 278 279 282 284 285 286 287 289 289 289 289 288 289 290 291 292 292 292 293 293 293 293 293 293 294 294 295 296 296 296 296 296 296 295 295 294 293 293 293 292 292 291 291 291 292 293 294 297 299 301 303 304 304 304 304 303 303 306 309 311 311 311 311 309 305 301 301 303 307 310 312 313 313 313
287 286 284 281 280 281 282 282 283 283 283 282 281 280 282 284 286 288 289 289 289 289 289 290 291 292 292 292 292 293 293 293 293 293 293 293 294 294 295 296 296 296 296 296 296 295 294 294 293 293 292 292 291 291 291 291 292 293 295 298 300 302 304 305 305 304 302 301 304 308 311 312 313 314 315 312 305 300 301 305 310 314 316 316 316 315
Height
5803 5802 5798 5798 5801 5802 5801 5798 5796 5796 5795 5794 5794 5793 5792 5791 5790 5792 5793 5791 5789 5789 5790 5790 5789 5789 5788 5788 5788 5789 5790 5789 5790 5790 5790 5789 5789 5788 5787 5787 5787 5786 5785 5784 5783 5783 5782 5782 5782 5782 5782 5782 5782 5781 5781 5781 5781 5781 5780 5779 5779 5779 5779 5779 5779 5778 5778 5778 5778 5778 5778 5778 5778 5777 5777 5777 5777 5777 5777 5777 5777 5778 5778 5778 5777 5775
5798 5797 5795 5795 5795 5797 5797 5795 5793 5791 5789 5789 5789 5789 5788 5787 5787 5787 5786 5786 5785 5784 5786 5786 5784 5784 5786 5786 5785 5784 5784 5783 5785 5787 5787 5787 5786 5785 5784 5784 5783 5782 5782 5782 5781 5780 5779 5778 5778 5777 5777 5777 5778 5777 5777 5777 5777 5777 5776 5776 5776 5775 5775 5775 5775 5775 5774 5774 5774 5774 5774 5773 5773 5773 5772 5772 5772 5772 5772 5772 5772 5773 5773 5773 5772 5771
5792 5791 5791 5790 5790 5792 5792 5790 5789 5787 5786 5784 5784 5783 5782 5782 5782 5781 5781 5781 5780 5780 5781 5781 5779 5779 5781 5783 5782 5782 5780 5778 5780 5782 5783 5783 5782 5782 5781 5780 5780 5779 5779 5778 5778 5777 5776 5775 5774 5773 5773 5773 5773 5773 5773 5773 5773 5773 5773 5772 5772 5772 5771 5771 5771 5771 5771 5770 5770 5769 5770 5769 5769 5769 5768 5768 5767 5767 5767 5767 5767 5767 5768 5768 5768 5767
5786 5785 5785 5784 5785 5787 5785 5784 5783 5783 5783 5781 5779 5778 5778 5778 5777 5776 5777 5776 5775 5775 5776 5775 5774 5775 5777 5777 5778 5780 5777 5775 5778 5777 5777 5779 5778 5778 5778 5777 5777 5776 5775 5775 5774 5773 5772 5771 5770 5770 5770 5769 5769 5769 5769 5769 5769 5769 5769 5768 5768 5768 5767 5767 5766 5766 5766 5766 5765 5765 5765 5765 5765 5764 5764 5764 5763 5763 5762 5762 5762 5762 5762 5762 5762 5762
5781 5781 5780 5779 5780 5780 5779 5779 5778 5778 5778 5777 5776 5775 5774 5774 5773 5772 5771 5771 5771 5770 5770 5769 5768 5770 5772 5772 5773 5776 5772 5770 5775 5774 5771 5774 5773 5772 5772 5772 5773 5771 5771 5770 5769 5769 5768 5767 5766 5766 5766 5766 5766 5765 5764 5764 5764 5763 5763 5763 5763 5762 5762 5762 5761 5761 5761 5761 5760 5760 5760 5759 5759 5759 5759 5759 5759 5758 5758 5757 5757 5756 5756 5756 5756 5756
5776 5777 5777 5775 5774 5772 5773 5774 5773 5773 5773 5772 5772 5771 5771 5770 5769 5769 5767 5767 5766 5766 5764 5763 5762 5763 5767 5770 5770 5772 5767 5763 5768 5768 5766 5769 5767 5765 5765 5765 5766 5766 5765 5765 5763 5763 5762 5762 5761 5761 5761 5761 5760 5760 5760 5759 5759 5758 5758 5757 5757 5756 5756 5755 5755 5755 5755 5755 5755 5754 5754 5754 5754 5754 5754 5754 5753 5753 5753 5752 5752 5752 5751 5751 5751 5751
5772 5773 5773 5772 5770 5769 5768 5768 5768 5768 5768 5768 5767 5767 5767 5766 5765 5765 5764 5763 5762 5761 5760 5757 5755 5755 5759 5766 5768 5768 5763 5757 5758 5758 5759 5763 5762 5760 5760 5759 5759 5759 5759 5759 5758 5758 5757 5756 5755 5754 5754 5754 5753 5754 5754 5754 5753 5753 5752 5752 5751 5750 5750 5749 5749 5748 5748 5748 5748 5748 5748 5747 5747 5747 5747 5748 5747 5747 5747 5747 5747 5747 5746 5746 5745 5745
5768 5768 5767 5766 5766 5766 5765 5764 5762 5762 5762 5763 5763 5762 5762 5762 5761 5761 5760 5759 5757 5756 5755 5754 5752 5749 5750 5758 5762 5762 5760 5755 5754 5753 5753 5756 5754 5753 5754 5752 5752 5752 5753 5754 5753 5753 5752 5751 5750 5748 5747 5747 5746 5746 5746 5747 5747 5747 5746 5745 5745 5744 5743 5743 5742 5742 5741 5741 5741 5741 5740 5740 5740 5740 5740 5740 5740 5739 5739 5740 5740 5740 5740 5739 5739 5739
5763 5763 5762 5761 5761 5761 5762 5761 5759 5758 5758 5758 5758 5757 5757 5757 5757 5756 5755 5755 5753 5751 5751 5752 5751 5746 5745 5750 5752 5752 5751 5748 5750 5750 5749 5750 5748 5746 5747 5746 5745 5744 5745 5748 5748 5747 5747 5746 5744 5742 5741 5740 5739 5739 5738 5739 5739 5739 5739 5738 5738 5737 5736 5736 5735 5735 5734 5734 5733 5733 5733 5732 5732 5732 5732 5732 5732 5732 5731 5731 5732 5732 5732 5731 5731 5731
5758 5758 5757 5757 5758 5757 5757 5756 5755 5755 5754 5754 5755 5753 5753 5752 5752 5751 5750 5750 5748 5746 5749 5749 5747 5743 5742 5744 5743 5742 5741 5739 5741 5743 5742 5743 5743 5740 5739 5738 5739 5738 5737 5739 5741 5741 5741 5739 5738 5736 5736 5734 5733 5732 5731 5731 5732 5731 5731 5731 5730 5730 5729 5729 5728 5727 5727 5726 5726 5725 5725 5724 5724 5724 5724 5724 5724 5724 5723 5723 5723 5724 5724 5723 5723 5723
5753 5753 5753 5753 5753 5753 5753 5752 5751 5751 5750 5751 5751 5749 5749 5748 5748 5747 5745 5744 5742 5741 5746 5746 5742 5738 5737 5739 5737 5735 5734 5732 5734 5736 5734 5735 5735 5734 5732 5731 5731 5731 5730 5731 5733 5734 5734 5733 5731 5729 5728 5727 5725 5725 5724 5724 5724 5723 5723 5723 5722 5722 5722 5722 5721 5721 5720 5719 5718 5717 5717 5716 5716 5716 5715 5715 5715 5715 5715 5715 5715 5715 5715 5715 5714 5714
5748 5748 5748 5748 5748 5748 5748 5747 5746 5747 5746 5746 5745 5744 5744 5744 5742 5740 5739 5738 5736 5737 5741 5740 5736 5734 5733 5735 5735 5730 5729 5728 5728 5728 5727 5726 5727 5728 5728 5726 5725 5724 5723 5723 5724 5725 5726 5726 5725 5723 5720 5718 5717 5716 5715 5715 5716 5716 5715 5715 5714 5714 5714 5713 5713 5713 5713 5712 5711 5710 5709 5708 5708 5707 5707 5706 5706 5706 5706 5705 5706 5706 5706 5706 5706 5705
5743 5743 5743 5742 5743 5743 5742 5741 5741 5742 5741 5740 5739 5739 5738 5738 5736 5733 5732 5731 5730 5732 5733 5731 5730 5728 5727 5729 5729 5726 5724 5725 5724 5722 5720 5718 5718 5718 5719 5720 5719 5717 5716 5716 5716 5717 5718 5718 5717 5716 5713 5710 5709 5707 5706 5705 5704 5705 5705 5705 5705 5705 5705 5704 5704 5704 5704 5703 5703 5702 5701 5701 5700 5699 5698 5697 5697 5696 5696 5695 5695 5696 5696 5696 5696 5696
5737 5737 5738 5738 5738 5738 5736 5735 5735 5735 5735 5734 5734 5733 5731 5731 5729 5726 5727 5725 5724 5725 5723 5723 5724 5722 5721 5722 5721 5720 5719 5719 5719 5717 5715 5713 5712 5709 5709 5711 5710 5709 5708 5708 5708 5708 5709 5709 5707 5706 5704 5702 5701 5699 5698 5696 5694 5693 5693 5694 5695 5695 5695 5694 5694 5694 5693 5693 5693 5693 5692 5692 5691 5690 5689 5689 5688 5687 5686 5685 5685 5685 5685 5685 5686 5686
5730 5731 5733 5732 5731 5732 5732 5731 5729 5728 5728 5727 5728 5727 5725 5725 5723 5720 5721 5720 5719 5718 5716 5717 5719 5717 5717 5717 5717 5715 5713 5713 5712 5710 5709 5708 5707 5704 5702 5703 5702 5700 5699 5698 5699 5699 5698 5698 5697 5695 5694 5693 5691 5690 5689 5688 5687 5685 5684 5684 5685 5685 5685 5685 5684 5684 5683 5683 5683 5683 5682 5682 5682 5681 5681 5680 5679 5678 5677 5676 5675 5674 5674 5674 5675 5675
5723 5724 5727 5727 5724 5726 5727 5725 5723 5722 5720 5720 5722 5720 5719 5720 5717 5713 5712 5713 5711 5707 5708 5712 5713 5713 5712 5711 5712 5711 5709 5709 5706 5704 5704 5701 5700 5699 5696 5696 5695 5693 5691 5689 5689 5688 5688 5688 5687 5685 5684 5682 5681 5680 5679 5678 5678 5678 5677 5676 5675 5675 5675 5675 5675 5675 5674 5674 5674 5673 5673 5672 5672 5671 5670 5670 5669 5669 5668 5667 5666 5665 5665 5664 5664 5664
5716 5716 5719 5721 5718 5719 5721 5719 5717 5716 5713 5712 5714 5715 5714 5713 5710 5706 5703 5704 5704 5697 5700 5707 5707 5707 5706 5703 5706 5706 5702 5702 5700 5698 5696 5693 5692 5691 5689 5688 5687 5686 5684 5682 5680 5679 5678 5678 5677 5676 5674 5673 5671 5670 5669 5668 5668 5668 5667 5666 5666 5665 5664 5664 5664 5664 5664 5664 5663 5663 5662 5662 5661 5661 5660 5659 5659 5658 5658 5657 5657 5656 5656 5655 5654 5654
5708 5708 5711 5715 5711 5710 5714 5713 5711 5709 5705 5703 5704 5706 5706 5703 5702 5700 5695 5694 5695 5689 5691 5699 5700 5701 5700 5696 5698 5699 5695 5695 5693 5690 5689 5686 5685 5683 5682 5680 5678 5676 5675 5673 5672 5671 5670 5669 5667 5666 5665 5664 5663 5662 5660 5659 5658 5658 5657 5657 5656 5656 5655 5654 5653 5653 5652 5652 5652 5652 5651 5651 5651 5650 5650 5649 5649 5648 5648 5647 5646 5646 5645 5645 5644 5644
5700 5701 5703 5708 5705 5702 5707 5708 5705 5702 5699 5696 5695 5696 5695 5692 5692 5693 5688 5685 5686 5682 5681 5687 5690 5693 5695 5691 5689 5689 5688 5687 5685 5683 5682 5680 5678 5676 5675 5673 5671 5669 5666 5664 5663 5662 5661 5660 5659 5658 5657 5656 5655 5654 5653 5652 5651 5650 5649 5649 5648 5647 5647 5645 5644 5644 5642 5642 5641 5640 5640 5640 5639 5639 5639 5639 5638 5638 5637 5636 5636 5635 5635 5634 5634 5634
5694 5692 5694 5700 5700 5696 5698 5701 5699 5696 5692 5689 5687 5686 5686 5685 5684 5684 5683 5681 5679 5674 5673 5675 5678 5684 5688 5687 5683 5682 5680 5678 5677 5676 5675 5673 5671 5669 5667 5666 5664 5662 5660 5657 5656 5654 5653 5651 5650 5649 5648 5647 5646 5645 5644 5643 5642 5641 5640 5639 5638 5637 5637 5636 5635 5634 5633 5632 5631 5630 5629 5629 5628 5628 5628 5627 5627 5627 5626 5626 5625 5625 5624 5624 5623 5623
5686 5683 5683 5690 5692 5689 5690 5692 5692 5688 5684 5680 5679 5679 5679 5678 5678 5676 5675 5677 5674 5668 5666 5665 5665 5673 5681 5680 5677 5676 5673 5671 5670 5669 5668 5665 5663 5661 5659 5658 5656 5654 5652 5650 5648 5646 5644 5643 5641 5640 5639 5638 5637 5636 5634 5633 5631 5630 5628 5627 5627 5626 5625 5625 5625 5624 5623 5622 5621 5620 5619 5618 5617 5616 5616 5615 5615 5615 5615 5614 5614 5614 5613 5613 5612 5612
5677 5674 5672 5676 5681 5682 5684 5684 5682 5678 5675 5673 5671 5671 5672 5672 5671 5667 5666 5670 5669 5662 5660 5658 5654 5660 5672 5672 5669 5667 5666 5665 5663 5660 5658 5657 5654 5652 5650 5648 5646 5644 5642 5640 5639 5637 5635 5633 5631 5630 5629 5628 5627 5626 5624 5623 5621 5620 5618 5617 5615 5614 5613 5612 5612 5612 5612 5611 5610 5609 5608 5607 5606 5605 5604 5604 5603 5603 5603 5602 5602 5602 5602 5601 5600 5600
5669 5665 5663 5664 5668 5673 5676 5676 5673 5668 5666 5666 5664 5664 5665 5664 5664 5661 5657 5659 5660 5656 5655 5652 5645 5648 5660 5662 5660 5659 5658 5658 5654 5650 5648 5647 5645 5645 5643 5640 5638 5635 5633 5630 5628 5626 5624 5622 5621 5619 5618 5617 5616 5615 5614 5613 5612 5610 5609 5607 5606 5604 5603 5601 5600 5599 5599 5598 5598 5597 5597 5596 5595 5594 5593 5592 5591 5591 5591 5590 5590 5590 5590 5589 5588 5588
5661 5658 5656 5655 5658 5662 5666 5669 5667 5660 5658 5657 5658 5658 5657 5656 5657 5654 5650 5650 5648 5647 5649 5644 5636 5640 5648 5650 5651 5651 5650 5648 5645 5641 5639 5637 5637 5636 5634 5633 5631 5627 5624 5621 5618 5616 5614 5612 5611 5609 5608 5606 5605 5604 5603 5602 5601 5600 5598 5597 5595 5594 5592 5591 5590 5589 5588 5587 5586 5585 5584 5584 5583 5583 5582 5581 5580 5579 5578 5578 5578 5577 5577 5576 5576 5575
5655 5652 5649 5648 5648 5651 5657 5662 5660 5653 5650 5649 5650 5652 5650 5650 5650 5647 5645 5643 5637 5637 5642 5635 5628 5635 5640 5639 5642 5643 5640 5637 5634 5632 5631 5630 5629 5627 5625 5624 5622 5618 5616 5612 5609 5606 5604 5602 5601 5600 5599 5598 5596 5594 5593 5592 5591 5589 5588 5586 5585 5583 5581 5580 5579 5577 5577 5576 5575 5574 5573 5572 5571 5571 5570 5569 5568 5567 5566 5565 5565 5564 5564 5563 5562 5561
5647 5645 5644 5642 5639 5641 5646 5652 5652 5647 5642 5641 5643 5645 5645 5644 5644 5641 5638 5635 5629 5629 5631 5627 5624 5630 5633 5632 5634 5634 5629 5626 5624 5623 5623 5622 5619 5617 5615 5613 5611 5608 5606 5603 5600 5597 5595 5593 5591 5590 5588 5587 5586 5584 5583 5581 5579 5578 5576 5575 5573 5572 5570 5568 5567 5565 5564 5564 5563 5562 5561 5560 5559 5558 5557 5556 5555 5554 5553 5552 5551 5551 5550 5550 5549 5548
5638 5637 5639 5637 5633 5633 5636 5641 5644 5639 5633 5632 5634 5637 5638 5639 5638 5635 5629 5625 5623 5621 5618 5620 5622 5620 5621 5626 5626 5623 5618 5614 5614 5613 5613 5611 5609 5606 5605 5603 5601 5599 5596 5593 5591 5588 5586 5584 5582 5580 5577 5575 5574 5572 5571 5569 5567 5565 5563 5561 5559 5558 5557 5556 5555 5553 5552 5550 5549 5549 5548 5547 5545 5544 5543 5542 5542 5540 5539 5538 5537 5537 5536 5536 5536 5535
5629 5629 5634 5631 5626 5627 5629 5630 5633 5630 5624 5623 5624 5627 5631 5632 5630 5627 5621 5618 5617 5609 5604 5613 5617 5609 5609 5617 5616 5612 5609 5604 5602 5602 5601 5601 5600 5598 5596 5594 5592 5589 5586 5584 5582 5579 5577 5575 5572 5570 5567 5564 5562 5560 5558 5556 5554 5552 5550 5547 5545 5544 5543 5542 5541 5539 5537 5536 5535 5534 5533 5532 5530 5529 5528 5527 5527 5526 5525 5524 5523 5522 5522 5521 5521 5521
5621 5621 5627 5624 5617 5619 5622 5621 5622 5620 5616 5616 5616 5617 5621 5623 5623 5620 5614 5612 5610 5600 5595 5603 5605 5599 5600 5605 5603 5602 5599 5595 5593 5592 5590 5588 5588 5588 5586 5584 5582 5580 5577 5574 5571 5569 5567 5565 5562 5559 5557 5554 5551 5548 5546 5543 5540 5538 5536 5534 5532 5530 5528 5527 5526 5524 5522 5521 5520 5518 5517 5516 5514 5513 5512 5511 5511 5511 5510 5510 5509 5508 5507 5507 5506 5506
5613 5614 5618 5613 5608 5612 5615 5615 5612 5608 5605 5607 5609 5609 5611 5613 5613 5609 5606 5605 5602 5594 5590 5593 5590 5588 5591 5593 5590 5589 5588 5586 5584 5582 5580 5577 5577 5577 5576 5574 5572 5569 5566 5562 5559 5557 5555 5553 5550 5547 5544 5542 5539 5536 5533 5530 5528 5526 5523 5521 5519 5517 5515 5513 5512 5510 5509 5507 5505 5503 5501 5500 5498 5497 5496 5495 5494 5494 5494 5493 5493 5492 5492 5491 5491 5491
5606 5606 5607 5604 5599 5603 5609 5609 5603 5597 5595 5597 5600 5604 5605 5604 5602 5599 5598 5597 5592 5586 5586 5584 5577 5576 5580 5580 5576 5576 5577 5575 5573 5571 5570 5568 5566 5566 5565 5562 5559 5556 5553 5550 5547 5545 5543 5540 5537 5533 5530 5528 5526 5523 5520 5516 5514 5512 5510 5508 5506 5503 5501 5500 5498 5497 5495 5493 5491 5489 5487 5485 5484 5482 5481 5480 5478 5477 5477 5476 5476 5475 5474 5474 5474 5474
5600 5597 5598 5596 5589 5591 5602 5601 5592 5588 5586 5586 5592 5599 5600 5597 5592 5590 5589 5586 5582 5579 5577 5574 5568 5566 5568 5567 5565 5564 5564 5562 5562 5560 5559 5556 5554 5553 5552 5549 5546 5542 5538 5535 5532 5530 5528 5525 5522 5519 5517 5514 5511 5509 5505 5502 5500 5498 5496 5494 5492 5490 5488 5487 5485 5484 5482 5480 5478 5476 5474 5471 5470 5469 5467 5465 5463 5462 5461 5460 5460 5459 5457 5457 5457 5456
5593 5589 5589 5588 5580 5582 5593 5591 5582 5578 5575 5577 5589 5594 5591 5587 5583 5580 5578 5577 5576 5573 5567 5562 5560 5557 5555 5553 5553 5552 5550 5549 5550 5549 5546 5543 5540 5538 5537 5536 5532 5528 5524 5521 5518 5516 5513 5510 5508 5506 5503 5500 5498 5495 5492 5489 5487 5485 5483 5481 5479 5477 5476 5474 5473 5471 5469 5467 5464 5462 5460 5458 5456 5455 5454 5452 5449 5447 5446 5444 5443 5442 5441 5440 5439 5439
5585 5581 5580 5578 5572 5572 5581 5581 5570 5564 5564 5573 5585 5586 5580 5577 5574 5569 5568 5569 5569 5565 5558 5553 5550 5546 5542 5541 5541 5539 5537 5537 5537 5537 5534 5530 5526 5524 5523 5522 5519 5515 5512 5509 5506 5503 5500 5498 5496 5493 5491 5489 5486 5484 5481 5479 5477 5474 5472 5470 5467 5465 5463 5462 5460 5458 5455 5454 5452 5449 5447 5445 5443 5441 5440 5438 5435 5433 5431 5429 5427 5426 5424 5423 5422 5422
5576 5574 5571 5569 5565 5563 5569 5569 5558 5553 5560 5567 5571 5573 5572 5569 5565 5560 5558 5560 5560 5555 5549 5545 5539 5535 5532 5531 5529 5527 5526 5525 5524 5525 5523 5516 5512 5511 5511 5510 5507 5504 5501 5498 5495 5492 5489 5487 5485 5482 5481 5479 5476 5474 5471 5469 5467 5465 5462 5460 5457 5455 5453 5450 5448 5446 5443 5442 5440 5437 5434 5432 5430 5428 5426 5423 5421 5418 5417 5415 5412 5411 5409 5406 5405 5405
5568 5566 5562 5560 5558 5555 5556 5557 5548 5545 5554 5558 5557 5560 5561 5558 5556 5552 5546 5547 5549 5546 5541 5535 5528 5525 5523 5521 5518 5515 5514 5513 5513 5513 5510 5503 5499 5499 5499 5499 5498 5494 5491 5488 5485 5483 5481 5478 5475 5473 5472 5469 5466 5464 5462 5460 5458 5456 5453 5451 5448 5446 5443 5440 5438 5435 5433 5431 5428 5425 5422 5420 5417 5415 5413 5410 5407 5405 5403 5400 5398 5397 5394 5391 5390 5390
5560 5558 5555 5552 5550 5548 5546 5544 5541 5538 5541 5547 5551 5551 5547 5545 5546 5541 5532 5532 5537 5538 5533 5524 5516 5514 5513 5510 5507 5504 5502 5501 5502 5502 5499 5492 5489 5489 5489 5489 5488 5485 5483 5480 5477 5475 5473 5470 5467 5465 5462 5460 5457 5455 5454 5452 5450 5447 5445 5442 5440 5437 5434 5431 5428 5426 5423 5421 5418 5415 5412 5408 5404 5402 5400 5397 5394 5391 5389 5386 5384 5382 5379 5376 5375 5375
5551 5550 5549 5543 5541 5542 5538 5534 5532 5529 5529 5537 5542 5540 5535 5534 5533 5527 5518 5516 5523 5527 5522 5513 5507 5504 5501 5498 5496 5494 5491 5490 5491 5493 5489 5483 5481 5481 5480 5479 5478 5475 5473 5471 5468 5467 5465 5462 5459 5456 5453 5451 5448 5446 5445 5443 5441 5439 5436 5434 5431 5428 5426 5423 5420 5417 5414 5412 5408 5405 5401 5397 5393 5390 5387 5384 5381 5378 5376 5373 5370 5368 5365 5361 5358 5358
5543 5541 5540 5535 5532 5535 5532 5526 5523 5520 5520 5527 5530 5527 5525 5522 5519 5514 5505 5502 5510 5514 5508 5502 5497 5492 5489 5487 5485 5483 5482 5481 5482 5483 5480 5475 5474 5474 5472 5471 5469 5467 5464 5462 5460 5459 5458 5454 5451 5448 5445 5443 5440 5438 5436 5434 5432 5430 5427 5425 5422 5420 5417 5414 5412 5409 5406 5403 5399 5395 5391 5386 5382 5378 5374 5371 5368 5365 5362 5360 5356 5353 5350 5346 5342 5340
5537 5532 5530 5527 5526 5527 5524 5517 5513 5512 5516 5520 5516 5513 5514 5511 5506 5502 5494 5491 5498 5499 5494 5491 5487 5481 5478 5477 5475 5474 5474 5473 5473 5475 5472 5468 5466 5465 5464 5462 5461 5459 5457 5455 5454 5453 5450 5446 5443 5440 5437 5435 5432 5430 5428 5426 5424 5421 5418 5416 5413 5411 5408 5405 5403 5400 5397 5394 5390 5385 5381 5376 5371 5367 5362 5358 5355 5352 5349 5345 5341 5338 5334 5330 5327 5323
5530 5525 5521 5520 5519 5519 5515 5507 5502 5504 5509 5511 5505 5501 5502 5500 5495 5491 5486 5484 5485 5483 5480 5479 5476 5472 5470 5468 5466 5467 5467 5466 5465 5466 5465 5462 5459 5457 5456 5454 5452 5450 5449 5449 5449 5446 5443 5439 5436 5432 5429 5426 5424 5422 5420 5418 5415 5412 5410 5407 5404 5401 5399 5396 5394 5390 5387 5384 5380 5375 5370 5365 5359 5355 5351 5346 5341 5338 5335 5330 5324 5321 5318 5314 5311 5308
5520 5516 5515 5515 5513 5510 5506 5499 5493 5493 5499 5500 5494 5490 5489 5487 5483 5481 5479 5475 5473 5471 5469 5467 5466 5465 5463 5460 5459 5460 5460 5460 5459 5457 5456 5454 5451 5450 5449 5447 5445 5442 5441 5441 5441 5439 5435 5432 5428 5425 5422 5419 5416 5414 5412 5409 5407 5404 5401 5398 5395 5392 5390 5387 5384 5381 5377 5373 5369 5364 5359 5354 5349 5344 5339 5334 5328 5323 5321 5316 5310 5305 5302 5298 5294 5292
5509 5507 5509 5511 5508 5502 5496 5490 5483 5482 5488 5491 5484 5479 5478 5475 5472 5471 5469 5464 5462 5461 5460 5458 5458 5459 5455 5451 5451 5451 5452 5453 5451 5448 5447 5445 5443 5442 5441 5439 5438 5436 5434 5433 5432 5430 5427 5423 5420 5417 5414 5412 5408 5406 5403 5400 5398 5395 5392 5389 5386 5383 5380 5377 5374 5370 5367 5362 5358 5353 5348 5343 5339 5333 5327 5321 5315 5310 5306 5302 5297 5292 5288 5284 5280 5278
5499 5501 5502 5503 5501 5493 5486 5483 5476 5471 5477 5480 5474 5469 5468 5464 5461 5460 5457 5455 5453 5453 5452 5450 5450 5451 5449 5445 5443 5443 5444 5445 5443 5441 5440 5438 5436 5435 5433 5432 5431 5428 5427 5425 5423 5421 5418 5415 5412 5409 5406 5403 5400 5397 5395 5392 5389 5387 5383 5380 5377 5374 5371 5368 5364 5360 5356 5352 5347 5342 5338 5333 5328 5322 5316 5310 5303 5298 5294 5289 5285 5281 5277 5272 5269 5266
5492 5495 5494 5493 5492 5484 5476 5475 5471 5465 5468 5469 5462 5457 5456 5453 5453 5452 5448 5446 5446 5444 5443 5442 5441 5442 5441 5438 5436 5435 5436 5436 5436 5435 5433 5431 5429 5427 5425 5425 5423 5420 5419 5416 5414 5412 5409 5406 5403 5400 5397 5395 5392 5389 5386 5383 5380 5378 5375 5371 5368 5365 5362 5359 5355 5351 5347 5342 5337 5332 5328 5323 5318 5312 5306 5300 5293 5288 5284 5279 5275 5271 5267 5264 5260 5257
5486 5489 5484 5480 5482 5475 5466 5466 5466 5462 5464 5463 5454 5448 5446 5444 5445 5445 5442 5440 5440 5438 5436 5434 5433 5434 5433 5430 5428 5428 5428 5428 5427 5426 5425 5424 5421 5420 5418 5417 5415 5412 5410 5407 5405 5402 5400 5397 5394 5391 5388 5386 5383 5380 5377 5374 5371 5369 5366 5363 5360 5357 5354 5350 5346 5342 5338 5333 5328 5323 5318 5313 5309 5303 5297 5291 5285 5279 5274 5270 5266 5263 5259 5255 5252 5249
5480 5482 5475 5469 5468 5461 5454 5458 5461 5457 5455 5454 5447 5443 5441 5438 5438 5438 5436 5435 5435 5433 5432 5430 5427 5427 5426 5424 5422 5421 5420 5420 5419 5417 5417 5416 5413 5412 5410 5408 5406 5404 5401 5398 5396 5393 5391 5388 5386 5383 5380 5378 5374 5372 5369 5366 5363 5360 5357 5355 5352 5349 5346 5342 5338 5334 5330 5325 5320 5315 5309 5305 5300 5295 5289 5283 5276 5271 5266 5262 5258 5255 5251 5247 5244 5241
5471 5471 5466 5461 5457 5450 5444 5448 5452 5448 5445 5445 5442 5438 5435 5433 5431 5430 5429 5429 5429 5427 5426 5424 5422 5420 5419 5418 5416 5414 5414 5413 5411 5410 5409 5407 5405 5403 5402 5400 5398 5396 5393 5390 5388 5385 5382 5380 5377 5375 5373 5370 5366 5364 5361 5358 5355 5352 5349 5347 5344 5341 5338 5335 5330 5326 5322 5317 5312 5307 5302 5298 5292 5287 5281 5275 5269 5264 5259 5255 5251 5248 5244 5240 5235 5232
5461 5460 5459 5453 5445 5441 5438 5439 5441 5438 5436 5437 5436 5432 5428 5426 5425 5424 5423 5423 5422 5421 5419 5417 5415 5413 5412 5412 5411 5408 5407 5406 5404 5402 5400 5399 5397 5395 5393 5391 5389 5387 5384 5382 5379 5377 5374 5372 5369 5367 5365 5362 5359 5356 5354 5351 5348 5344 5342 5339 5337 5333 5330 5327 5323 5319 5314 5310 5305 5300 5296 5291 5286 5279 5274 5268 5263 5258 5253 5249 5245 5242 5238 5233 5228 5224
5451 5449 5450 5442 5433 5432 5433 5432 5432 5429 5426 5428 5429 5426 5422 5420 5418 5417 5417 5416 5415 5414 5411 5410 5409 5407 5406 5405 5404 5402 5400 5399 5397 5395 5393 5391 5389 5386 5385 5383 5381 5378 5376 5373 5371 5369 5366 5363 5361 5359 5356 5354 5351 5348 5346 5344 5341 5337 5334 5332 5329 5326 5323 5319 5315 5312 5307 5303 5299 5294 5290 5285 5280 5273 5267 5261 5256 5253 5249 5245 5240 5235 5231 5227 5222 5217
5442 5438 5438 5431 5425 5424 5425 5425 5424 5421 5418 5419 5420 5419 5417 5414 5411 5410 5411 5409 5408 5407 5404 5403 5402 5401 5399 5398 5397 5396 5394 5392 5390 5388 5385 5383 5381 5379 5376 5374 5372 5370 5368 5365 5363 5361 5358 5355 5353 5351 5348 5346 5343 5341 5339 5337 5333 5330 5327 5325 5322 5319 5315 5311 5307 5304 5301 5296 5292 5288 5284 5279 5274 5267 5261 5255 5250 5247 5244 5241 5236 5230 5225 5220 5216 5211